Location: Unspecified
(51.6250°N, 0.8230°E)
Time: 10:11:23
(UTC+01:00)

CZ-3 Stage 3 - Pass Details

Date: 06 August 2020
Orbit: 426 x 34763 km, 31.1° (Epoch: 22 September)

Event Time Altitude Azimuth Distance (km) Brightness Sun altitude
Rises 03:41:08 0° 176° (S) 10,402 7.8 -13.6°
Reaches altitude 10° 03:49:07 10° 167° (SSE) 11,600 8.1 -12.8°
Maximum altitude 10:14:44 65° 164° (SSE) 31,178 11.7 41.7°
Drops below altitude 10° 12:57:55 10° 131° (SE) 9,707 8.6 54.8°
Sets 13:02:32 0° 127° (SE) 9,389 8.3 54.9°
